Location: Unspecified
(0.0000°N, 0.0000°E)
Time: 12:28:43
(UTC+00:00)

Vanguard 3 - Pass Details

Date: 16 December 2017
Orbit: 508 x 3264 km, 33.4° (Epoch: 21 January)

Event Time Altitude Azimuth Distance (km) Brightness Sun altitude
Rises 08:35:07 0° 246° (WSW) 6,320 11.4 36.1°
Reaches altitude 10° 08:40:14 10° 252° (WSW) 4,872 10.9 37.2°
Maximum altitude 08:51:49 42° 318° (NW) 2,029 9.2 39.7°
Drops below altitude 10° 08:58:34 10° 28° (NNE) 2,854 10.0 41.1°
Sets 09:00:49 0° 36° (NE) 3,540 10.5 41.6°
